STARLINK-11680, 63554

Orbit data source: Space-Track

STARLINK-11680, 63554 is a payload satellite owned by SpaceX/Seattle (US) in LEO that was launched on Sun, 13 Apr 2025 UTC via an FALCON 9 launch vehicle from the Air Force Eastern Test Range (AFETR). Payload-class satellites include a variety of spacecraft equipped with specific instruments for various scientific and technological missions. These include communications satellites like Starlink; space stations such as the ISS; scientific satellites like the Hubble; Earth observation satellites from companies like Planet Labs, Umbra, and HawkEye 360; GPS; miniature CubeSats for education and research; and military/defense satellites.

Loading next visibility...
Identifier
63554, 2025-075G
Orbit
LEO
Country
Flag of USUS
Related business
Manufacturer
SpaceX/Seattle
Mission
Operational Commercial Communications
Bus & Motor
STARLINK V2MD, Unknown motor
Mass
960 kg wet, ~910 kg dry
Launch date (UTC)
2025-04-13 (1 year ago)
Launch vehicle
FALCON 9
Launch site
Air Force Eastern Test Range (AFETR)
Object type
Payload
Rocket body
Debris
Shape & HBR
Box + 2 Pan, 18.1 m
Radar Cross Section
36.964 m², Large (>1 m²)

Expand to show TLE details & history
Last TLE update: 13 hours ago

TLE from 13 hours ago
0 STARLINK-11680
1 63554U 25075G   26171.29300787  .00199296  00000-0  15205-2 0  9996
2 63554  42.9955 255.5008 0002486 286.2366  73.8228 15.70825875 69381
Epoch: 2026-06-20T07:01Z
TLE epoch observation values (Epoch: 2026-06-20T07:01:55.879Z)
Latitude
-0.00004°
Longitude
-118.49178°
Altitude
355.84 km
Speed
7.698 km/s
True Right ascension
17h 02m 00s
True Declination
0° 00' 00"
Sunlit
Object was in full shadow at epoch
Visualization orbit readout
Latitude
Unknown
Longitude
Unknown
Altitude
Unknown
Speed
Unknown
Apparent Right ascension
Unknown
Apparent Declination
Unknown
Sunlit
N/A
Visualization observer readout
Local Sidereal Time
07:23:40
Azimuth
Unknown
Elevation
Unknown
Doppler factor
Unknown
Orbital elements
Apogee altitude
360.193 km
Perigee altitude
356.843 km
Semi-major axis
6,736.655 km
Eccentricity
0.00025
Inclination
42.9955°
RAAN
255.5008°
Arg. of periapsis
286.2366°
True anomaly
73.85016°
Mean anomaly
73.8228°
Eccentric anomaly
73.83648°
Mean motion
3.92534 °/min
Orbital period
91.71 mins
BSTAR
0.0015205
Loading maneuver chart data...
Computing Atmospheric mass density...
Loading historical data...
Loading historical data...
Loading historical data...
Loading historical data...
Loading historical data...
Loading historical data...
Loading historical data...

Documentation

Showing up to 5 results
|